This demonstration page uses our WeatherBlox Daily Observations layout. Learn more.

38.89511, -77.03637

Hourly Observations for September 13, 2015

Temp ( °F °C ) Dew Point ( °F °C ) Humidity (%) Winds ( mph kmh ) Pressure ( in mb ) Visibility ( mi km ) Precip ( " mm )
12:52 am 00:52 Cloudy 70 21 57 14 64 64 WNW 12 19 29.74 1007 10 16.09344 0 0
1:52 am 01:52 Cloudy 66 19 54 12 64 64 WNW 12 19 29.74 1007 10 16.09344 0 0
2:52 am 02:52 Cloudy 64 18 54 12 68 68 NW 8 13 29.74 1007 10 16.09344 0 0
3:52 am 03:52 Cloudy 64 18 54 12 68 68 WNW 8 13 29.74 1007 10 16.09344 0 0
4:52 am 04:52 Mostly Cloudy 64 18 52 11 64 64 WNW 8 13 29.74 1007 10 16.09344 0 0
5:52 am 05:52 Cloudy with Light Rain 64 18 54 12 68 68 NW 9 15 29.77 1008 10 16.09344 0.001 0.001
6:52 am 06:52 Mostly Cloudy 64 18 54 12 68 68 NW 13 20 29.77 1008 10 16.09344 0.001 0.001
7:52 am 07:52 Mostly Cloudy 64 18 54 12 68 68 NW 12 19 29.8 1009 10 16.09344 0.001 0.001
8:52 am 08:52 Partly Cloudy 66 19 54 12 64 64 NW 7 11 29.8 1009 10 16.09344 0 0
9:52 am 09:52 Mostly Cloudy 66 19 52 11 60 60 NW 14 22 29.83 1010 10 16.09344 0 0
10:52 am 10:52 Mostly Cloudy 70 21 52 11 53 53 NNW 14 22 29.83 1010 10 16.09344 0 0
11:52 am 11:52 Mostly Cloudy 70 21 52 11 53 53 NNW 13 20 29.83 1010 10 16.09344 0.001 0.001
12:52 pm 12:52 Mostly Cloudy 73 23 52 11 47 47 NW 9 15 29.83 1010 10 16.09344 0 0
1:52 pm 13:52 Mostly Cloudy 73 23 50 10 44 44 NNW 18 30 29.85 1011 10 16.09344 0 0
2:52 pm 14:52 Partly Cloudy 73 23 46 8 38 38 WNW 16 26 29.85 1011 10 16.09344 0 0
3:52 pm 15:52 Mostly Cloudy 72 22 48 9 44 44 NW 10 17 29.85 1011 10 16.09344 0 0
4:52 pm 16:52 Partly Cloudy 72 22 45 7 38 38 WNW 16 26 29.88 1012 10 16.09344 0 0
5:52 pm 17:52 Partly Cloudy 72 22 45 7 38 38 WNW 15 24 29.88 1012 10 16.09344 0 0
6:52 pm 18:52 Partly Cloudy 70 21 45 7 40 40 WNW 14 22 29.91 1013 10 16.09344 0 0
7:52 pm 19:52 Mostly Clear 68 20 46 8 46 46 WNW 8 13 29.94 1014 10 16.09344 0 0
8:52 pm 20:52 Clear 66 19 45 7 46 46 WNW 8 13 29.97 1015 10 16.09344 0 0
9:52 pm 21:52 Clear 64 18 45 7 49 49 NW 8 13 30 1016 10 16.09344 0 0
10:52 pm 22:52 Clear 63 17 46 8 56 56 WSW 5 7 30 1016 10 16.09344 0 0
11:52 pm 23:52 Clear 61 16 46 8 59 59 W 8 13 30.03 1017 10 16.09344 0 0

Powered by AerisWeather